When you browse on this site, cookies collect data to enhance your experience and personalize the content and advertising you see.
Visit our Privacy Policy to learn more. By continuing to use the site, you agree to this use of cookies and data.
  • In Hungary
  • List of Countries
  • For 7 days
  • Water Temperature
  • Satellite Maps
  • Weather Map
  • News
  • Weather Widgets
  • user-avatar
    Login

    Hourly Weather Parla

    Today, 22 January, Tuesday

    Time Temperature Precipitation Wind Pressure Humidity
    00:00 +3°C° 0 mm 1 mps 709 mmHg 73%
    01:00 +3°C° 0 mm 1 mps 709 mmHg 74%
    02:00 +2°C° 0 mm 1 mps 708 mmHg 75%
    03:00 +2°C° 0 mm 1 mps 708 mmHg 76%
    04:00 +2°C° 0 mm 1 mps 708 mmHg 75%
    05:00 +2°C° 0 mm 1 mps 707 mmHg 74%
    06:00 +2°C° 0 mm 1 mps 707 mmHg 72%
    07:00 +2°C° 0 mm 2 mps 707 mmHg 70%
    08:00 +3°C° 0 mm 2 mps 707 mmHg 67%
    09:00 +3°C° 0 mm 2 mps 707 mmHg 65%
    10:00 +4°C° 0 mm 3 mps 707 mmHg 61%
    11:00 +5°C° 0 mm 4 mps 706 mmHg 57%
    12:00 +6°C° 0 mm 5 mps 706 mmHg 53%
    13:00 +7°C° 0.1 mm 5 mps 705 mmHg 54%
    14:00 +7°C° 0.1 mm 6 mps 704 mmHg 54%
    15:00 +6°C° 0.1 mm 7 mps 704 mmHg 55%
    16:00 +7°C° 0.5 mm 6 mps 704 mmHg 61%
    17:00 +6°C° 0.5 mm 5 mps 704 mmHg 67%
    18:00 +6°C° 0.5 mm 5 mps 704 mmHg 73%
    19:00 +5°C° 0.1 mm 4 mps 704 mmHg 73%
    20:00 +4°C° 0.1 mm 4 mps 704 mmHg 73%
    21:00 +4°C° 0.1 mm 4 mps 704 mmHg 73%
    22:00 +3°C° 0 mm 4 mps 704 mmHg 75%
    23:00 +3°C° 0 mm 4 mps 704 mmHg 78%

    Tomorrow, 23 January, Wednesday

    Time Temperature Precipitation Wind Pressure Humidity
    00:00 +2°C° 0 mm 5 mps 704 mmHg 81%
    01:00 +1°C° 0 mm 5 mps 704 mmHg 82%
    02:00 +1°C° 0 mm 5 mps 704 mmHg 82%
    03:00 +1°C° 0 mm 5 mps 703 mmHg 82%
    04:00 +1°C° 0 mm 6 mps 703 mmHg 83%
    05:00 +1°C° 0 mm 6 mps 703 mmHg 84%
    06:00 0°C° 0 mm 7 mps 703 mmHg 84%
    07:00 0°C° 0 mm 7 mps 702 mmHg 83%
    08:00 +1°C° 0 mm 8 mps 702 mmHg 83%
    09:00 +2°C° 0 mm 8 mps 702 mmHg 82%
    10:00 +5°C° 0 mm 8 mps 702 mmHg 73%
    11:00 +7°C° 0 mm 9 mps 702 mmHg 65%
    12:00 +11°C° 0 mm 9 mps 702 mmHg 56%
    13:00 +10°C° 0 mm 8 mps 702 mmHg 58%
    14:00 +10°C° 0 mm 8 mps 701 mmHg 60%
    15:00 +10°C° 0 mm 7 mps 701 mmHg 61%
    16:00 +9°C° 0.1 mm 6 mps 701 mmHg 64%
    17:00 +9°C° 0.1 mm 6 mps 701 mmHg 66%
    18:00 +8°C° 0.1 mm 5 mps 702 mmHg 69%
    19:00 +8°C° 0 mm 5 mps 702 mmHg 69%
    20:00 +7°C° 0 mm 6 mps 702 mmHg 70%
    21:00 +5°C° 0 mm 6 mps 702 mmHg 70%
    22:00 +6°C° 0 mm 5 mps 702 mmHg 72%
    23:00 +5°C° 0 mm 5 mps 702 mmHg 74%

    Day after tomorrow, 24 January, Thursday

    Time Temperature Precipitation Wind Pressure Humidity
    00:00 +5°C° 0 mm 5 mps 702 mmHg 76%
    01:00 +5°C° 0 mm 5 mps 702 mmHg 78%
    02:00 +5°C° 0 mm 5 mps 702 mmHg 79%
    03:00 +5°C° 0 mm 5 mps 702 mmHg 81%
    04:00 +5°C° 0 mm 5 mps 702 mmHg 81%
    05:00 +5°C° 0 mm 5 mps 702 mmHg 80%
    06:00 +5°C° 0 mm 5 mps 703 mmHg 79%
    07:00 +5°C° 0 mm 5 mps 703 mmHg 77%
    08:00 +6°C° 0 mm 5 mps 704 mmHg 75%
    09:00 +6°C° 0 mm 5 mps 704 mmHg 73%
    10:00 +7°C° 0 mm 5 mps 704 mmHg 64%
    11:00 +9°C° 0 mm 6 mps 705 mmHg 56%
    12:00 +10°C° 0 mm 7 mps 705 mmHg 47%
    13:00 +11°C° 0 mm 7 mps 705 mmHg 47%
    14:00 +11°C° 0 mm 7 mps 705 mmHg 46%
    15:00 +11°C° 0 mm 7 mps 704 mmHg 45%
    16:00 +10°C° 0 mm 6 mps 705 mmHg 49%
    17:00 +10°C° 0 mm 4 mps 705 mmHg 54%
    18:00 +9°C° 0 mm 3 mps 706 mmHg 58%
    19:00 +9°C° 0 mm 3 mps 706 mmHg 60%
    20:00 +9°C° 0 mm 3 mps 707 mmHg 62%
    21:00 +8°C° 0 mm 4 mps 707 mmHg 64%
    22:00 +7°C° 0 mm 4 mps 707 mmHg 67%
    23:00 +7°C° 0 mm 4 mps 707 mmHg 70%

    25 January, Friday

    Time Temperature Precipitation Wind Pressure Humidity
    00:00 +7°C° 0 mm 3 mps 707 mmHg 73%
    01:00 +6°C° 0 mm 4 mps 707 mmHg 73%
    02:00 +7°C° 0 mm 4 mps 707 mmHg 72%
    03:00 +7°C° 0 mm 4 mps 707 mmHg 72%
    04:00 +7°C° 0 mm 4 mps 707 mmHg 73%
    05:00 +6°C° 0 mm 4 mps 708 mmHg 74%
    06:00 +6°C° 0 mm 4 mps 708 mmHg 75%
    07:00 +7°C° 0 mm 4 mps 708 mmHg 73%
    08:00 +7°C° 0 mm 4 mps 709 mmHg 71%
    09:00 +9°C° 0 mm 3 mps 709 mmHg 69%
    10:00 +10°C° 0 mm 4 mps 709 mmHg 62%
    11:00 +11°C° 0 mm 4 mps 709 mmHg 55%
    12:00 +13°C° 0 mm 5 mps 710 mmHg 47%
    13:00 +13°C° 0 mm 4 mps 709 mmHg 46%
    14:00 +13°C° 0 mm 4 mps 709 mmHg 45%
    15:00 +14°C° 0 mm 4 mps 709 mmHg 44%
    16:00 +12°C° 0 mm 3 mps 709 mmHg 48%
    17:00 +11°C° 0 mm 3 mps 709 mmHg 53%
    18:00 +10°C° 0 mm 2 mps 709 mmHg 57%
    19:00 +9°C° 0 mm 2 mps 709 mmHg 61%
    20:00 +8°C° 0 mm 2 mps 710 mmHg 64%
    21:00 +8°C° 0 mm 1 mps 710 mmHg 68%
    22:00 +7°C° 0 mm 1 mps 710 mmHg 70%
    23:00 +7°C° 0 mm 1 mps 709 mmHg 73%

    26 January, Saturday

    Time Temperature Precipitation Wind Pressure Humidity
    00:00 +5°C° 0 mm 0 mps 709 mmHg 76%
    01:00 +5°C° 0 mm 0 mps 709 mmHg 78%
    02:00 +4°C° 0 mm 0 mps 708 mmHg 80%
    03:00 +4°C° 0 mm 0 mps 708 mmHg 81%
    04:00 +4°C° 0 mm 0 mps 708 mmHg 81%
    05:00 +3°C° 0 mm 0 mps 707 mmHg 82%
    06:00 +4°C° 0 mm 1 mps 707 mmHg 82%
    07:00 +5°C° 0 mm 1 mps 707 mmHg 78%
    08:00 +6°C° 0 mm 1 mps 707 mmHg 74%
    09:00 +6°C° 0 mm 2 mps 707 mmHg 70%
    10:00 +8°C° 0 mm 3 mps 707 mmHg 62%
    11:00 +10°C° 0 mm 4 mps 707 mmHg 54%
    12:00 +10°C° 0 mm 5 mps 706 mmHg 45%
    13:00 +11°C° 0 mm 6 mps 706 mmHg 41%
    14:00 +13°C° 0 mm 6 mps 705 mmHg 37%
    15:00 +12°C° 0 mm 7 mps 705 mmHg 33%
    16:00 +11°C° 0 mm 6 mps 705 mmHg 40%
    17:00 +10°C° 0 mm 6 mps 705 mmHg 46%
    18:00 +9°C° 0 mm 5 mps 705 mmHg 52%
    19:00 +8°C° 0 mm 5 mps 705 mmHg 55%
    20:00 +7°C° 0 mm 5 mps 706 mmHg 58%
    21:00 +7°C° 0 mm 5 mps 706 mmHg 61%
    22:00 +6°C° 0 mm 4 mps 706 mmHg 60%
    23:00 +5°C° 0 mm 4 mps 707 mmHg 60%

    27 January, Sunday

    Time Temperature Precipitation Wind Pressure Humidity
    00:00 +4°C° 0 mm 3 mps 707 mmHg 59%
    01:00 +3°C° 0 mm 3 mps 707 mmHg 60%
    02:00 +3°C° 0 mm 3 mps 707 mmHg 62%
    03:00 +2°C° 0 mm 3 mps 707 mmHg 63%
    04:00 +2°C° 0 mm 3 mps 707 mmHg 63%
    05:00 +2°C° 0 mm 3 mps 707 mmHg 64%
    06:00 +1°C° 0 mm 3 mps 707 mmHg 64%
    07:00 +2°C° 0 mm 3 mps 707 mmHg 63%
    08:00 +3°C° 0 mm 4 mps 708 mmHg 61%
    09:00 +3°C° 0 mm 4 mps 708 mmHg 59%
    10:00 +4°C° 0 mm 4 mps 708 mmHg 53%
    11:00 +6°C° 0 mm 5 mps 708 mmHg 47%
    12:00 +7°C° 0 mm 5 mps 708 mmHg 41%
    13:00 +8°C° 0 mm 6 mps 707 mmHg 40%
    14:00 +8°C° 0 mm 7 mps 707 mmHg 39%
    15:00 +9°C° 0 mm 7 mps 706 mmHg 38%
    16:00 +8°C° 0 mm 7 mps 706 mmHg 42%
    17:00 +7°C° 0 mm 6 mps 706 mmHg 46%
    18:00 +5°C° 0 mm 6 mps 705 mmHg 51%
    19:00 +4°C° 0 mm 6 mps 705 mmHg 54%
    20:00 +4°C° 0 mm 6 mps 705 mmHg 57%
    21:00 +3°C° 0 mm 6 mps 705 mmHg 61%
    22:00 +3°C° 0 mm 6 mps 705 mmHg 65%
    23:00 +2°C° 0 mm 6 mps 704 mmHg 69%
    Show more